Location: Ailly
(50.0793°N, 1.9944°E)
Time: 10:13:07
(UTC+00:00)

USA 307 - Pass Details

Date: 15 January 2026
Orbit: 495 x 502 km, 54.0° (Epoch: 10 March)

Event Time Altitude Azimuth Distance (km) Brightness Sun altitude
Exits shadow 05:56:46 35° 307° (NW) 829 3.2 -16.8°
Maximum altitude 05:58:18 67° 19° (NNE) 551 2.8 -16.5°
Drops below altitude 10° 06:02:12 10° 102° (ESE) 1,661 6.6 -15.9°
Sets 06:04:18 0° 105° (ESE) 2,468 8.1 -15.6°
